Location: Kumla
(59.1265°N, 15.1401°E)
Time: 14:40:35
(UTC+01:00)

Altair - Visible Passes

Search period start: 03 December 2023 00:00
Search period end: 13 December 2023 00:00
Orbit: 1501 x 1682 km, 47.2° (Epoch: 02 December)

Date Brightness Start Highest point End Pass type
(mag) Time Alt. Az. Time Alt. Az. Time Alt. Az.
03 Dec 10.6 07:05:23 10° SE 07:07:54 11° SE 07:10:23 10° ESE visible
04 Dec 10.6 06:42:06 10° SE 06:42:56 10° SE 06:43:45 10° ESE visible
07 Dec 9.8 07:22:42 10° SSW 07:29:45 23° SE 07:36:37 10° E visible
08 Dec 9.8 06:57:51 10° S 07:04:43 22° SE 07:11:24 10° E visible
09 Dec 9.8 06:33:03 10° S 06:39:41 21° SE 06:46:10 10° E visible
10 Dec 9.8 06:08:16 10° S 06:14:39 20° SE 06:20:55 10° E visible
11 Dec 9.7 05:43:32 10° S 05:49:38 19° SE 05:55:37 10° E visible
11 Dec 9.2 07:43:43 10° SW 07:52:09 35° SSE 08:00:18 10° E visible
12 Dec 9.7 05:18:50 10° S 05:24:37 18° SE 05:30:17 10° E visible
12 Dec 9.1 07:18:41 10° SW 07:27:03 34° SSE 07:35:10 10° E visible
